Weather History for Monett, MO

Change the Weather History Date:

Monday, January 7, 2013

  Actual Average (KJLN) Record (KJLN)
Temperature  
Mean Temperature 38 °F 35 °F  
Max Temperature 50 °F 44 °F 73 °F (1965)
Min Temperature 26 °F 25 °F -6 °F (1968)
Degree Days  
Heating Degree Days 27 30  
Month to date heating degree days 210  
Since 1 July heating degree days 1827  
Cooling Degree Days 0 0  
Month to date cooling degree days 0  
Year to date cooling degree days 0  
Moisture  
Dew Point 24 °F    
Average Humidity 62    
Maximum Humidity 80    
Minimum Humidity 40    
Precipitation  
Precipitation 0.00 in 0.07 in 0.52 in (1998)
Month to date precipitation 0.50  
Year to date precipitation 0.50  
Sea Level Pressure  
Sea Level Pressure 30.22 in    
Wind  
Wind Speed 8 mph (SSE)    
Max Wind Speed 17 mph    
Max Gust Speed 18 mph    
Visibility 10 miles    
Events      
T = Trace of Precipitation, MM = Missing Value Source: NWS Daily Summary

Daily Weather History Graph

Daily Weather History Graph

Search for Another Location

Airport:

Trip Planner

Search our weather history database for the weather conditions in past years. The results will help you decide how hot, cold, wet, or windy it might be!

Date:

Astronomy

Jan. 07, 2013 Rise Set
Actual Time 7:29 AM CST 5:15 PM CST
Civil Twilight 7:00 AM CST 5:44 PM CST
Nautical Twilight 6:28 AM CST 6:16 PM CST
Astronomical Twilight 5:57 AM CST 6:48 PM CST
Moon 2:55 AM CST (1/7) 1:26 PM CST (1/7)
Length of Visible Light 10h 43m
Length of Day
9h 46m
Waning Crescent, 22% of the Moon is Illuminated
Jan 7
Waning Crescent
Jan 11
New
Jan 18
First Quarter
Jan 26
Full
Feb 3
Last Quarter

Hourly Weather History & Observations

Time (CST) Temp. Windchill Dew Point Humidity Pressure Visibility Wind Dir Wind Speed Gust Speed Precip Events Conditions
12:15 AM 28.4 °F 21.2 °F 19.4 °F 69% 30.32 in 10.0 mi SE 6.9 mph - N/A   Clear
12:35 AM 28.4 °F 20.4 °F 19.4 °F 69% 30.32 in 10.0 mi SE 8.1 mph - N/A   Clear
12:55 AM 28.4 °F 20.4 °F 19.4 °F 69% 30.32 in 10.0 mi SE 8.1 mph - N/A   Clear
1:15 AM 30.2 °F 23.4 °F 19.4 °F 64% 30.32 in 10.0 mi SE 6.9 mph - N/A   Clear
1:35 AM 28.4 °F 20.4 °F 19.4 °F 69% 30.32 in 10.0 mi SE 8.1 mph - N/A   Clear
1:55 AM 30.2 °F 23.4 °F 21.2 °F 69% 30.31 in 10.0 mi SE 6.9 mph - N/A   Clear
2:15 AM 28.4 °F 22.2 °F 21.2 °F 74% 30.31 in 10.0 mi SE 5.8 mph - N/A   Clear
2:35 AM 28.4 °F 19.7 °F 21.2 °F 74% 30.30 in 10.0 mi ESE 9.2 mph - N/A   Clear
2:55 AM 28.4 °F 20.4 °F 21.2 °F 74% 30.30 in 10.0 mi ESE 8.1 mph - N/A   Clear
3:15 AM 28.4 °F 20.4 °F 21.2 °F 74% 30.30 in 10.0 mi ESE 8.1 mph - N/A   Clear
3:35 AM 26.6 °F 18.2 °F 21.2 °F 80% 30.30 in 10.0 mi SE 8.1 mph - N/A   Clear
3:55 AM 26.6 °F 19.1 °F 21.2 °F 80% 30.29 in 10.0 mi ESE 6.9 mph - N/A   Clear
4:15 AM 26.6 °F 17.5 °F 21.2 °F 80% 30.28 in 10.0 mi ESE 9.2 mph - N/A   Clear
4:35 AM 26.6 °F 18.2 °F 21.2 °F 80% 30.27 in 10.0 mi ESE 8.1 mph - N/A   Clear
4:55 AM 26.6 °F 18.2 °F 21.2 °F 80% 30.27 in 10.0 mi SE 8.1 mph - N/A   Clear
5:15 AM 26.6 °F 16.8 °F 21.2 °F 80% 30.27 in 10.0 mi ESE 10.4 mph - N/A   Clear
5:35 AM 26.6 °F 16.8 °F 21.2 °F 80% 30.27 in 10.0 mi SE 10.4 mph - N/A   Clear
5:55 AM 28.4 °F 20.4 °F 21.2 °F 74% 30.27 in 10.0 mi SE 8.1 mph - N/A   Clear
6:15 AM 28.4 °F 20.4 °F 21.2 °F 74% 30.28 in 10.0 mi SE 8.1 mph - N/A   Clear
6:35 AM 28.4 °F 19.7 °F 21.2 °F 74% 30.28 in 10.0 mi SE 9.2 mph - N/A   Clear
6:55 AM 28.4 °F 20.4 °F 21.2 °F 74% 30.28 in 10.0 mi SE 8.1 mph - N/A   Clear
7:15 AM 28.4 °F 19.7 °F 21.2 °F 74% 30.29 in 10.0 mi SE 9.2 mph - N/A   Clear
7:35 AM 28.4 °F 20.4 °F 21.2 °F 74% 30.29 in 10.0 mi SE 8.1 mph - N/A   Clear
7:55 AM 28.4 °F 20.4 °F 21.2 °F 74% 30.29 in 10.0 mi SE 8.1 mph - N/A   Clear
8:15 AM 30.2 °F 22.6 °F 23.0 °F 75% 30.30 in 10.0 mi SE 8.1 mph - N/A   Clear
8:35 AM 32.0 °F 24.2 °F 24.8 °F 75% 30.29 in 10.0 mi SE 9.2 mph - N/A   Clear
8:55 AM 33.8 °F 25.8 °F 26.6 °F 75% 30.29 in 10.0 mi SSE 10.4 mph - N/A   Clear
9:15 AM 35.6 °F 27.1 °F 26.6 °F 70% 30.29 in 10.0 mi South 12.7 mph - N/A   Clear
9:35 AM 37.4 °F 29.8 °F 26.6 °F 65% 30.29 in 10.0 mi South 11.5 mph - N/A   Clear
9:55 AM 39.2 °F 33.6 °F 26.6 °F 61% 30.29 in 10.0 mi SSE 8.1 mph 18.4 mph N/A   Clear
10:15 AM 41.0 °F 34.3 °F 26.6 °F 57% 30.29 in 10.0 mi South 11.5 mph 17.3 mph N/A   Clear
10:35 AM 42.8 °F 38.0 °F 28.4 °F 57% 30.29 in 10.0 mi South 8.1 mph - N/A   Clear
10:55 AM 44.6 °F 38.4 °F 28.4 °F 53% 30.28 in 10.0 mi South 12.7 mph - N/A   Clear
11:15 AM 44.6 °F 37.2 °F 26.6 °F 49% 30.26 in 10.0 mi South 17.3 mph - N/A   Clear
11:35 AM 44.6 °F 37.4 °F 26.6 °F 49% 30.26 in 10.0 mi SSW 16.1 mph - N/A   Clear
11:55 AM 46.4 °F 40.4 °F 26.6 °F 46% 30.24 in 10.0 mi South 13.8 mph - N/A   Clear
12:15 PM 46.4 °F 40.4 °F 26.6 °F 46% 30.23 in 10.0 mi SSW 13.8 mph - N/A   Clear
12:35 PM 46.4 °F 40.7 °F 26.6 °F 46% 30.21 in 10.0 mi SSW 12.7 mph - N/A   Clear
12:55 PM 46.4 °F 41.5 °F 26.6 °F 46% 30.20 in 10.0 mi SSW 10.4 mph - N/A   Clear
1:15 PM 48.2 °F - 26.6 °F 43% 30.19 in 10.0 mi South 11.5 mph - N/A   Clear
1:35 PM 48.2 °F - 26.6 °F 43% 30.18 in 10.0 mi South 8.1 mph - N/A   Clear
1:55 PM 48.2 °F - 26.6 °F 43% 30.18 in 10.0 mi SSW 10.4 mph - N/A   Clear
2:15 PM 48.2 °F - 26.6 °F 43% 30.18 in 10.0 mi SSW 10.4 mph - N/A   Clear
2:35 PM 50.0 °F - 26.6 °F 40% 30.18 in 10.0 mi South 9.2 mph - N/A   Clear
2:55 PM 50.0 °F - 26.6 °F 40% 30.17 in 10.0 mi SSW 10.4 mph - N/A   Clear
3:15 PM 46.4 °F 41.9 °F 26.6 °F 46% 30.17 in 10.0 mi SW 9.2 mph - N/A   Clear
3:35 PM 48.2 °F - 26.6 °F 43% 30.16 in 10.0 mi South 5.8 mph - N/A   Clear
3:55 PM 50.0 °F - 26.6 °F 40% 30.16 in 10.0 mi South 11.5 mph - N/A   Clear
4:15 PM 48.2 °F - 26.6 °F 43% 30.16 in 10.0 mi South 8.1 mph - N/A   Clear
4:35 PM 46.4 °F 42.4 °F 24.8 °F 43% 30.15 in 10.0 mi South 8.1 mph - N/A   Clear
4:55 PM 44.6 °F 41.4 °F 24.8 °F 46% 30.15 in 10.0 mi South 5.8 mph - N/A   Clear
5:15 PM 42.8 °F 40.1 °F 24.8 °F 49% 30.14 in 10.0 mi SSE 4.6 mph - N/A   Clear
5:35 PM 39.2 °F 35.0 °F 24.8 °F 56% 30.13 in 10.0 mi SE 5.8 mph - N/A   Clear
6:15 PM 39.2 °F 33.6 °F 24.8 °F 56% 30.14 in 10.0 mi South 8.1 mph - N/A   Clear
6:35 PM 39.2 °F 34.2 °F 24.8 °F 56% 30.14 in 10.0 mi South 6.9 mph - N/A   Clear
6:55 PM 41.0 °F 36.4 °F 24.8 °F 53% 30.14 in 10.0 mi South 6.9 mph - N/A   Clear
7:15 PM 39.2 °F 34.2 °F 24.8 °F 56% 30.13 in 10.0 mi South 6.9 mph - N/A   Clear
7:35 PM 39.2 °F 35.0 °F 24.8 °F 56% 30.14 in 10.0 mi South 5.8 mph - N/A   Clear
7:55 PM 39.2 °F 35.0 °F 24.8 °F 56% 30.14 in 10.0 mi South 5.8 mph - N/A   Clear
8:15 PM 37.4 °F 32.8 °F 24.8 °F 60% 30.14 in 10.0 mi South 5.8 mph - N/A   Clear
8:35 PM 37.4 °F 32.1 °F 24.8 °F 60% 30.13 in 10.0 mi South 6.9 mph - N/A   Clear
8:55 PM 37.4 °F 32.8 °F 24.8 °F 60% 30.13 in 10.0 mi South 5.8 mph - N/A   Clear
9:15 PM 35.6 °F 30.7 °F 24.8 °F 65% 30.13 in 10.0 mi South 5.8 mph - N/A   Clear
9:35 PM 35.6 °F 29.9 °F 24.8 °F 65% 30.12 in 10.0 mi South 6.9 mph - N/A   Clear
9:55 PM 33.8 °F 28.6 °F 24.8 °F 70% 30.12 in 10.0 mi SE 5.8 mph - N/A   Clear
10:15 PM 33.8 °F 28.6 °F 23.0 °F 65% 30.12 in 10.0 mi SSE 5.8 mph - N/A   Clear
10:35 PM 33.8 °F 27.7 °F 23.0 °F 65% 30.11 in 10.0 mi SSE 6.9 mph - N/A   Clear
10:55 PM 33.8 °F 27.0 °F 23.0 °F 65% 30.10 in 10.0 mi SSE 8.1 mph - N/A   Clear
11:15 PM 35.6 °F 29.9 °F 23.0 °F 60% 30.11 in 10.0 mi SSE 6.9 mph - N/A   Clear
11:35 PM 33.8 °F 26.4 °F 24.8 °F 70% 30.10 in 10.0 mi SSE 9.2 mph - N/A   Clear
11:55 PM 33.8 °F 27.0 °F 23.0 °F 65% 30.10 in 10.0 mi SSE 8.1 mph - N/A   Clear